TimeCST,TemperatureF,Dew PointF,Humidity,Sea Level PressureIn,VisibilityMPH,Wind Direction,Wind SpeedMPH,Gust SpeedMPH,PrecipitationIn,Events,Conditions,WindDirDegrees,DateUTC
12:15 AM,33.8,23.0,65,29.84,10.0,South,21.9,27.6,N/A,,Clear,180,2014-01-04 06:15:00
12:35 AM,33.8,23.0,65,29.82,10.0,South,24.2,31.1,N/A,,Clear,180,2014-01-04 06:35:00
12:55 AM,33.8,23.0,65,29.80,10.0,South,23.0,32.2,N/A,,Clear,180,2014-01-04 06:55:00
1:15 AM,33.8,23.0,65,29.79,10.0,South,24.2,29.9,N/A,,Clear,180,2014-01-04 07:15:00
1:35 AM,33.8,23.0,65,29.78,10.0,South,28.8,32.2,N/A,,Clear,180,2014-01-04 07:35:00
1:55 AM,33.8,23.0,65,29.78,10.0,South,21.9,34.5,N/A,,Clear,180,2014-01-04 07:55:00
2:15 AM,33.8,23.0,65,29.78,10.0,South,25.3,33.4,N/A,,Clear,180,2014-01-04 08:15:00
2:35 AM,33.8,23.0,65,29.78,10.0,South,24.2,32.2,N/A,,Clear,180,2014-01-04 08:35:00
2:55 AM,33.8,24.8,70,29.77,10.0,South,23.0,29.9,N/A,,Clear,180,2014-01-04 08:55:00
3:15 AM,33.8,24.8,70,29.77,10.0,South,20.7,28.8,N/A,,Clear,190,2014-01-04 09:15:00
3:35 AM,33.8,24.8,70,29.78,10.0,South,13.8,23.0,N/A,,Clear,190,2014-01-04 09:35:00
3:55 AM,33.8,24.8,70,29.77,10.0,South,16.1,20.7,N/A,,Clear,190,2014-01-04 09:55:00
4:15 AM,33.8,24.8,70,29.77,10.0,South,16.1,-,N/A,,Clear,180,2014-01-04 10:15:00
4:35 AM,33.8,24.8,70,29.76,10.0,South,18.4,24.2,N/A,,Clear,170,2014-01-04 10:35:00
4:55 AM,33.8,24.8,70,29.76,10.0,South,15.0,-,N/A,,Clear,180,2014-01-04 10:55:00
5:15 AM,33.8,24.8,70,29.76,10.0,South,12.7,-,N/A,,Clear,180,2014-01-04 11:15:00
5:35 AM,33.8,24.8,70,29.78,10.0,South,13.8,-,N/A,,Clear,180,2014-01-04 11:35:00
5:55 AM,33.8,24.8,70,29.78,10.0,South,9.2,-,N/A,,Clear,180,2014-01-04 11:55:00
6:15 AM,32.0,24.8,75,29.78,10.0,South,10.4,-,N/A,,Clear,180,2014-01-04 12:15:00
6:35 AM,33.8,26.6,75,29.77,10.0,South,12.7,-,N/A,,Clear,170,2014-01-04 12:35:00
6:55 AM,33.8,26.6,75,29.77,10.0,South,13.8,-,N/A,,Clear,170,2014-01-04 12:55:00
7:15 AM,33.8,26.6,75,29.78,10.0,South,11.5,-,N/A,,Clear,180,2014-01-04 13:15:00
7:35 AM,33.8,26.6,75,29.79,10.0,South,9.2,-,N/A,,Clear,180,2014-01-04 13:35:00
7:55 AM,33.8,28.4,81,29.78,10.0,SSE,11.5,-,N/A,,Clear,160,2014-01-04 13:55:00
8:15 AM,35.6,28.4,75,29.79,10.0,SSE,10.4,-,N/A,,Clear,160,2014-01-04 14:15:00
8:35 AM,35.6,28.4,75,29.80,10.0,South,8.1,-,N/A,,Clear,170,2014-01-04 14:35:00
8:55 AM,37.4,30.2,75,29.81,10.0,South,10.4,-,N/A,,Clear,170,2014-01-04 14:55:00
9:15 AM,37.4,32.0,81,29.81,10.0,South,11.5,-,N/A,,Clear,180,2014-01-04 15:15:00
9:35 AM,39.2,32.0,75,29.81,10.0,South,13.8,-,N/A,,Clear,180,2014-01-04 15:35:00
9:55 AM,41.0,32.0,70,29.81,10.0,South,13.8,21.9,N/A,,Clear,180,2014-01-04 15:55:00
10:15 AM,42.8,32.0,66,29.82,10.0,South,16.1,23.0,N/A,,Clear,180,2014-01-04 16:15:00
10:35 AM,42.8,33.8,70,29.82,10.0,South,15.0,-,N/A,,Clear,190,2014-01-04 16:35:00
10:55 AM,44.6,33.8,66,29.81,10.0,South,13.8,19.6,N/A,,Clear,190,2014-01-04 16:55:00
11:15 AM,44.6,33.8,66,29.81,10.0,South,13.8,17.3,N/A,,Clear,180,2014-01-04 17:15:00
11:35 AM,44.6,33.8,66,29.80,10.0,South,11.5,-,N/A,,Clear,190,2014-01-04 17:35:00
11:55 AM,46.4,33.8,62,29.79,10.0,SSW,9.2,-,N/A,,Scattered Clouds,200,2014-01-04 17:55:00
12:15 PM,46.4,33.8,62,29.79,10.0,South,11.5,-,N/A,,Scattered Clouds,170,2014-01-04 18:15:00
12:35 PM,46.4,33.8,62,29.78,10.0,South,11.5,-,N/A,,Mostly Cloudy,180,2014-01-04 18:35:00
12:55 PM,46.4,33.8,62,29.78,10.0,SSW,5.8,-,N/A,,Overcast,210,2014-01-04 18:55:00
1:15 PM,46.4,33.8,62,29.77,10.0,SSW,5.8,-,N/A,,Overcast,200,2014-01-04 19:15:00
1:35 PM,46.4,32.0,57,29.78,10.0,Calm,Calm,-,N/A,,Overcast,0,2014-01-04 19:35:00
1:55 PM,46.4,32.0,57,29.77,10.0,South,3.5,-,N/A,,Overcast,170,2014-01-04 19:55:00
2:15 PM,48.2,32.0,54,29.77,10.0,Calm,Calm,-,N/A,,Scattered Clouds,0,2014-01-04 20:15:00
2:35 PM,46.4,32.0,57,29.77,10.0,East,4.6,-,N/A,,Mostly Cloudy,100,2014-01-04 20:35:00
2:55 PM,46.4,32.0,57,29.78,10.0,NE,3.5,-,N/A,,Overcast,50,2014-01-04 20:55:00
3:15 PM,46.4,32.0,57,29.79,10.0,ENE,5.8,-,N/A,,Overcast,60,2014-01-04 21:15:00
3:35 PM,44.6,32.0,61,29.79,10.0,NNE,5.8,-,N/A,,Overcast,30,2014-01-04 21:35:00
3:55 PM,44.6,33.8,66,29.80,10.0,NNE,4.6,-,N/A,,Overcast,30,2014-01-04 21:55:00
4:15 PM,44.6,33.8,66,29.81,10.0,NNE,4.6,-,N/A,,Overcast,30,2014-01-04 22:15:00
4:35 PM,42.8,33.8,70,29.82,10.0,North,5.8,-,N/A,,Overcast,10,2014-01-04 22:35:00
4:55 PM,35.6,28.4,75,29.84,10.0,North,28.8,34.5,N/A,,Overcast,350,2014-01-04 22:55:00
5:15 PM,33.8,26.6,75,29.86,10.0,North,21.9,32.2,N/A,,Overcast,360,2014-01-04 23:15:00
5:35 PM,32.0,26.6,80,29.87,10.0,North,18.4,28.8,N/A,,Overcast,360,2014-01-04 23:35:00
5:55 PM,32.0,26.6,80,29.89,10.0,North,19.6,28.8,N/A,,Overcast,10,2014-01-04 23:55:00
6:15 PM,32.0,26.6,80,29.90,10.0,North,24.2,28.8,N/A,,Overcast,10,2014-01-05 00:15:00
6:35 PM,32.0,26.6,80,29.92,10.0,North,16.1,21.9,N/A,,Overcast,10,2014-01-05 00:35:00
6:55 PM,32.0,24.8,75,29.93,10.0,North,17.3,21.9,N/A,,Overcast,10,2014-01-05 00:55:00
7:15 PM,32.0,24.8,75,29.94,10.0,North,20.7,26.5,N/A,,Overcast,10,2014-01-05 01:15:00
7:35 PM,30.2,23.0,75,29.95,10.0,North,17.3,24.2,N/A,,Overcast,360,2014-01-05 01:35:00
7:55 PM,30.2,23.0,75,29.95,10.0,North,17.3,25.3,N/A,,Overcast,360,2014-01-05 01:55:00
8:15 PM,30.2,23.0,75,29.96,10.0,NNE,18.4,23.0,N/A,,Scattered Clouds,20,2014-01-05 02:15:00
8:35 PM,28.4,23.0,80,29.95,10.0,North,21.9,26.5,N/A,,Clear,10,2014-01-05 02:35:00
8:55 PM,28.4,23.0,80,29.95,10.0,North,19.6,24.2,N/A,,Scattered Clouds,10,2014-01-05 02:55:00
9:15 PM,26.6,21.2,80,29.95,10.0,North,24.2,-,N/A,,Overcast,10,2014-01-05 03:15:00
9:35 PM,26.6,21.2,80,29.95,10.0,North,19.6,27.6,N/A,,Overcast,360,2014-01-05 03:35:00
9:55 PM,26.6,21.2,80,29.97,10.0,North,19.6,25.3,N/A,,Overcast,360,2014-01-05 03:55:00
10:15 PM,26.6,21.2,80,29.97,10.0,North,18.4,-,N/A,,Overcast,360,2014-01-05 04:15:00
10:35 PM,24.8,21.2,86,29.98,10.0,North,16.1,23.0,N/A,,Overcast,360,2014-01-05 04:35:00
10:55 PM,24.8,19.4,80,29.99,10.0,North,17.3,28.8,N/A,,Overcast,360,2014-01-05 04:55:00
11:15 PM,23.0,19.4,86,29.96,10.0,North,16.1,26.5,N/A,,Overcast,360,2014-01-05 05:15:00
11:35 PM,23.0,19.4,86,29.97,10.0,North,24.2,27.6,N/A,,Overcast,10,2014-01-05 05:35:00
11:55 PM,23.0,17.6,80,29.97,10.0,North,19.6,27.6,N/A,,Overcast,10,2014-01-05 05:55:00